Regional Weather Roundup
Issued by NWS

Home | Current Version | Previous Version | Text Only | Print | Product List | Glossary Off
Versions: 1 2 3 4 5 6 7 8 9 10 11 12 13 14 15 16 17 18 19 20 21 22 23 24 25 26 27 28 29 30 31 32 33 34 35 36 37 38 39 40 41 42 43 44 45 46 47 48 49 50

209
ASUS43 KTOP 192059
RWRKS

WEATHER ROUNDUP FOR KANSAS
NATIONAL WEATHER SERVICE GOODLAND KS
400 PM CDT THU OCT 19 2017

NOTE:  "FAIR" INDICATES FEW OR NO CLOUDS BELOW 12,000 FEET WITH NO
SIGNIFICANT WEATHER AND/OR OBSTRUCTIONS TO VISIBILITY.

KSZ001>006-013>018-027>032-041>047-192200-
NORTHWEST KANSAS

CITY           SKY/WX    TMP DP  RH WIND       PRES   REMARKS
GOODLAND       SUNNY     79  44  28 S18G29    29.94F
HILL CITY      SUNNY     83  46  27 S17G25    29.95F
RUSSELL        SUNNY     82  44  26 S17       29.96F
$$

KSZ061>065-074>080-084>089-192200-
SOUTHWEST KANSAS

CITY           SKY/WX    TMP DP  RH WIND       PRES   REMARKS
DODGE CITY     SUNNY     80  43  26 S17G31    29.99F
ELKHART          N/A     77  47  34 S21         N/A
GARDEN CITY    SUNNY     80  42  25 S15G28    29.96F
GREAT BEND     SUNNY     81  43  26 S20       29.98F
LIBERAL        SUNNY     80  41  24 S23       29.97F
$$

KSZ066>073-081>083-090>101-192200-
SOUTHEAST KANSAS

CITY           SKY/WX    TMP DP  RH WIND       PRES   REMARKS
CHANUTE        SUNNY     77  54  44 S13       30.09F
COFFEYVILLE    SUNNY     79  54  41 S14       30.09F
HUTCHINSON     SUNNY     80  49  33 S16       30.02S
MEDICINE LODGE   N/A     80  44  27 S16G25    30.00F
NEWTON         SUNNY     78  48  34 S16       30.04F
PARSONS        SUNNY     77  53  43 S7        30.11S
WICHITA INTL   MOSUNNY   78  48  34 S21G26    30.03F
WICHITA JABRA  SUNNY     78  46  32 S17       30.04F
WINFIELD       MOSUNNY   77  49  37 S10       30.07S
$$

KSZ007>012-019>026-033>040-048>060-102>105-192200-
NORTHEAST KANSAS

CITY           SKY/WX    TMP DP  RH WIND       PRES   REMARKS
CONCORDIA      SUNNY     81  49  32 S17       29.98F
EMPORIA        SUNNY     80  51  36 S15G22    30.04F
LAWRENCE       SUNNY     80  53  39 S12       30.04F
MANHATTAN      SUNNY     83  49  30 S14       30.00F
OLATHE IND     SUNNY     79  52  38 S14       30.07F
OLATHE EXE     SUNNY     77  53  43 S16       30.07F
SALINA         SUNNY     82  49  31 S15       30.00F
TOPEKA BILLARD SUNNY     81  51  35 S10       30.03F
TOPEKA FORBES  SUNNY     82  52  35 S12       30.03F
$$




USA.gov is the U.S. government's official web portal to all federal, state and local government web resources and services.